Location: Antin
(43.3330°N, 0.2804°E)
Time: 22:47:25
(UTC+00:00)

SME Rocket - Pass Details

Date: 02 June 2022
Orbit: 551 x 2650 km, 99.9° (Epoch: 01 July)

Event Time Altitude Azimuth Distance (km) Brightness Sun altitude
Exits shadow 02:53:21 11° 262° (W) 2,102 5.3 -13.0°
Maximum altitude 02:54:33 12° 278° (W) 2,127 5.5 -12.8°
Drops below altitude 10° 02:56:23 10° 299° (WNW) 2,402 5.9 -12.6°
Sets 03:01:00 0° 330° (NNW) 3,776 7.3 -12.0°
